Simultaneous Nadir Overpasses (SNOs) Predictions

Prediction of SNOs between GOES-17 and NOAA-19 Satellite Orbit:

Table of predicted SNOs for the next 14.0 days since TLE Epoch: 5/11/2024
Index Date Time (GOES-17) GOES-17 Lat,Lon NOAA-19 Lat,Lon Distance(km) Time Diff (sec)
1 05/13/2024 04:19:34 -0.00,-104.70 -0.36,-106.32 184.81 80
2 05/14/2024 04:04:38 -0.01,-104.70 0.33,-103.34 155.87 80
3 05/15/2024 03:52:20 -0.01,-104.70 0.98,-100.34 496.68 80
4 05/16/2024 16:24:00 0.01,-104.70 0.73,-107.95 370.18 80
5 05/17/2024 16:11:43 0.01,-104.70 0.06,-104.96 28.95 80
6 05/18/2024 16:02:05 0.01,-104.71 -0.61,-101.97 312.42 80
7 05/21/2024 04:21:37 -0.01,-104.71 -0.47,-106.62 217.68 80
8 05/22/2024 04:06:39 -0.01,-104.72 0.22,-103.62 124.00 80
9 05/23/2024 03:54:20 -0.01,-104.72 0.92,-100.63 465.58 80
10 05/24/2024 16:28:40 0.01,-104.71 0.80,-108.24 401.57 80
